Home > Time Zones > World Clock > Weather > India > Siwan > Past weeks

Flag for India Weather past 2 weeks in Siwan, Bihar, India

Now
66 °F

Fog.


Feels Like: 66 °F
Forecast: 48 / 66 °F
Wind: 5 mph from West

Location: Varanasi / Babatpur

Current Time: Jan 29, 2015 at 1:57:06 PM

Latest Report: Jan 29, 2015 at 1:00 PM


Visibility: 1 mi

Pressure: 30.07 "Hg

Humidity: 78%

Dew point: 59 °F

Location of SiwanLocation

Historic Weather in Siwan — Graph

°F

Siwan temperature yesterday

Maximum temperature yesterday: 70 °F (at 4:00 PM)
Minimum temperature yesterday: 59 °F (at 10:00 PM)
Average temperature yesterday: 63 °F

Past Weeks' High & Low Weather Summary

 TemperatureHumidityPressure
High73 °F (Jan 23, 3:00 PM)100% (Jan 14, 6:00 PM)30.24 "Hg (Jan 14, 6:00 PM)
Low41 °F (Jan 21, 6:00 AM)44% (Jan 22, 3:00 PM)29.89 "Hg (Jan 22, 12:00 AM)
Average56 °F88%30.08 "Hg
* Reported Jan 14 12:00 Noon — Jan 29 12:00 Noon, Siwan, Weather by CustomWeather, © 2014

Note: Actual official high and low records may vary slightly from our data, if they occured in-between our weather recording intervals... More about our weather records

Advertising

Siwan weather history for previous 24 hours

 ConditionsComfort  
Time TempWeatherWind HumidityBarometerVisibility
12:00 PM
Jan 29
66 °FFog.2 mph78%30.09 "Hg1 mi
11:00 AM66 °FFog.2 mph73%30.09 "Hg1 mi
9:00 AM59 °FFog.5 mph88%30.09 "Hg1 mi
8:00 AM57 °FFog.1 mph94%30.07 "Hg1 mi
7:00 AM57 °FFog.2 mph94%30.04 "Hg1 mi
6:00 AM57 °FFog.No wind94%29.98 "Hg1 mi
5:00 AM57 °FFog.6 mph100%29.98 "Hg1 mi
4:00 AM59 °FThunderstorms. Partly cloudy.3 mph94%29.98 "Hg1 mi
12:00 AM59 °FFog.3 mph94%30.01 "Hg1 mi
11:00 PM
Jan 28
59 °FFog.3 mph100%30.01 "Hg1 mi
10:00 PM59 °FFog.2 mph100%30.01 "Hg1 mi
9:00 PM61 °FFog.3 mph94%30.01 "Hg1 mi
8:00 PM63 °FFog.No wind94%30.01 "Hg1 mi
7:00 PM63 °FFog.2 mph94%29.98 "Hg1 mi
6:00 PM64 °FFog.No wind88%29.98 "Hg1 mi
5:00 PM66 °FHaze.2 mph78%29.98 "Hg1 mi
4:00 PM70 °FScattered clouds.8 mph73%29.98 "Hg1 mi
3:00 PM68 °FFog.5 mph78%29.98 "Hg1 mi
2:00 PM68 °FFog.3 mph78%30.01 "Hg1 mi
1:00 PM68 °FFog.3 mph83%30.04 "Hg1 mi
Weather by CustomWeather, © 2014

See weather overviewHow to use our weather pages